Location: Ottawa
(45.4167°N, 75.7000°W)
Time: 07:27:44
(UTC-04:00)

ISS - Pass Details

Date: 10 October 2017
Orbit: 401 x 408 km, 51.6° (Epoch: 25 October)

Event Time Altitude Azimuth Distance (km) Brightness Sun altitude
Rises 21:17:09 0° 292° (WNW) 2,330 1.2 -30.4°
Reaches altitude 10° 21:19:27 10° 279° (W) 1,468 -0.2 -30.7°
Enters shadow 21:19:43 11° 276° (W) 1,382 -0.4 -30.8°
